AO-07 1 07530U 74089B 26202.04759888 -.00000048 00000-0 -11257-4 0 9998 2 07530 101.9907 215.6472 0012625 67.5516 311.3823 12.53698642364760 AO-27 1 22825U 93061C 26202.47221364 .00000044 00000-0 33860-4 0 9991 2 22825 98.6862 269.8702 0008399 8.0280 352.1035 14.30950199711909 FO-29 1 24278U 96046B 26202.39406316 -.00000049 00000-0 -13675-4 0 9993 2 24278 98.5217 46.5770 0350059 7.8713 352.7727 13.53275806477791 ISS 1 25544U 98067A 26202.18553447 .00005896 00000-0 11479-3 0 9992 2 25544 51.6316 131.8443 0006849 320.6461 39.4029 15.49071756577020 NO-44 1 26931U 01043C 26202.31357675 .00000088 00000-0 63674-4 0 9994 2 26931 67.0502 156.0046 0005867 267.0955 92.9475 14.31966652295336 SO-50 1 27607U 02058C 26201.93815510 .00000570 00000-0 84993-4 0 9999 2 27607 64.5521 24.5545 0074346 256.2283 103.0541 14.83105633269469 AO-73 1 39444U 13066AE 26202.38982302 .00006028 00000-0 37014-3 0 9991 2 39444 97.8302 174.5633 0038113 87.5834 272.9757 15.09875397684826 IO-86 1 40931U 15052B 25151.18580782 .00001310 00000-0 87238-4 0 9990 2 40931 6.0001 24.1284 0012872 339.0660 20.8941 14.78806187523042 CAS-2T 1 41847U 16066G 26202.17620765 .00000551 00000-0 85959-4 0 9990 2 41847 98.3809 277.5235 0341927 26.6345 335.1967 14.44777292509708 AO-91 1 43017U 17073E 26202.53395256 .00006018 00000-0 26203-3 0 9994 2 43017 97.4661 69.0490 0148531 209.4169 149.8644 15.13115794470588 PO-101 1 43678U 18084H 26202.57913221 .00001005 00000-0 84703-4 0 9993 2 43678 98.1222 40.2948 0012454 64.6346 295.6165 15.00576809421378 QO-100 1 43700U 18090A 26202.62138870 .00000146 00000-0 00000-0 0 9990 2 43700 0.0117 347.1668 0002438 166.8289 34.8792 1.00273112 28029 JO-97 1 43803U 18099AX 26202.59884410 .00016681 00000-0 49813-3 0 9996 2 43803 97.4107 265.5735 0007312 139.1474 221.0318 15.34657827418900 RS-44 1 44909U 19096E 26202.32638599 .00000001 00000-0 -47847-4 0 9994 2 44909 82.5240 317.0216 0218395 64.7217 297.6340 12.79748807306715 CSS 1 48274U 21035A 26202.43210246 .00010973 00000-0 14512-3 0 9996 2 48274 41.4683 114.0267 0001747 306.5318 53.5359 15.58235366298518 HO-113 1 50466U 21131B 26202.62499204 .00000279 00000-0 99796-4 0 9999 2 50466 98.4982 294.8292 0004166 13.6599 346.4702 14.41385321240070 IO-117 1 53106U 22080B 25167.32760529 -.00000003 00000-0 00000-0 0 9996 2 53106 70.1560 65.9804 0008358 24.6429 335.4629 6.42557409 68669 UmKA-1 1 57172U 23091G 26202.63251850 .00005241 00000-0 23791-3 0 9996 2 57172 97.5028 261.2016 0012383 7.6583 352.4839 15.21166962169244 Monitor-3 1 57180U 23091Q 26202.64052986 .00009205 00000-0 33458-3 0 9990 2 57180 97.5061 266.3510 0010313 346.2165 13.8792 15.28451612169550 Monitor-4 1 57182U 23091S 26202.61765950 .00009180 00000-0 33278-3 0 9993 2 57182 97.5056 266.3011 0010333 346.6104 13.4860 15.28539218169552 VIZARD-meteo 1 57189U 23091Z 26202.59754734 .00015746 00000-0 43674-3 0 9991 2 57189 97.5069 272.7947 0005227 311.6611 48.4185 15.37005342169973 SONATE-2 1 59112U 24043Q 26201.94279129 .00033286 00000-0 39440-3 0 9990 2 59112 97.5562 354.4821 0006563 88.1508 272.0500 15.61151934133156 MO-122 1 60209U 24125G 26202.56653258 .00070659 00000-0 65889-3 0 9999 2 60209 97.2242 60.9233 0010602 93.3414 266.9060 15.67049906114946 GRBBeta 1 60237U 24128C 26202.19826995 .00002318 00000-0 16706-3 0 9993 2 60237 61.9889 96.9197 0036262 142.0386 218.3274 15.06835113111390 ArcticSat-1 1 61762U 24199AD 26165.34303744 .14484756 25559-5 25151-3 0 9992 2 61762 97.2729 49.6147 0010303 244.1546 115.8695 16.47295417137679 AO-123 1 61781U 24199AY 26202.62949495 .00007004 00000-0 20080-3 0 9992 2 61781 97.2957 70.9925 0013714 177.0874 183.0452 15.36115289139216 LASARsat 1 62391U 24247Q 26202.06206775 .00027288 00000-0 50950-3 0 9994 2 62391 44.9738 71.5646 0008249 202.6776 157.3752 15.48302336 88562 CroCube 1 62394U 24247T 26202.65944481 .00041735 00000-0 71515-3 0 9998 2 62394 44.9713 64.9220 0008646 212.7388 147.2968 15.50548927 88696 TEVEL2-4 1 63213U 25052D 26202.66245360 .00018876 00000-0 54489-3 0 9996 2 63213 97.3852 99.1315 0002941 39.0087 321.1368 15.35722053 75405 TEVEL2-5 1 63214U 25052E 26202.23085156 .00013792 00000-0 40164-3 0 9992 2 63214 97.3850 98.6364 0003007 41.9307 318.2166 15.35513919 75337 TEVEL2-6 1 63215U 25052F 26202.24396586 .00014542 00000-0 42379-3 0 9990 2 63215 97.3856 98.6345 0003085 43.9320 316.2168 15.35478834 75332 TEVEL2-1 1 63217U 25052H 26201.95933923 .00012768 00000-0 37939-3 0 9995 2 63217 97.3828 97.9321 0003746 47.7905 312.3656 15.34894951 75277 TEVEL2-3 1 63218U 25052J 26202.27861424 .00014156 00000-0 41933-3 0 9990 2 63218 97.3838 98.2781 0003518 50.2315 309.9238 15.34968740 75326 TEVEL2-2 1 63219U 25052K 26202.22019497 .00013942 00000-0 41374-3 0 9992 2 63219 97.3827 98.1963 0003810 47.4460 312.7104 15.34915096 75319 TEVEL2-9 1 63237U 25052AD 26202.24254238 .00012991 00000-0 41133-3 0 9994 2 63237 97.3890 97.5180 0007083 39.6084 320.5675 15.32853308 75241 TEVEL2-7 1 63238U 25052AE 26202.15968763 .00012126 00000-0 38803-3 0 9990 2 63238 97.3894 97.3362 0007217 40.1547 320.0227 15.32531062 75222 TEVEL2-8 1 63239U 25052AF 26202.49473660 .00014980 00000-0 47863-3 0 9991 2 63239 97.3893 97.6468 0007229 39.9501 320.2272 15.32528866 75276 SO-125 1 63492U 25052BN 26141.26653985 .06534464 24594-5 20838-2 0 9990 2 63492 97.3646 46.2798 0012126 212.7126 147.3417 16.26141574 66567 GALAPAGOS-UTE-SWSU 1 67279U 25313AH 26202.17407579 .00004956 00000-0 21204-3 0 9993 2 67279 97.3906 276.2563 0012601 239.7673 120.2317 15.23210978 31126 Lobachevsky 1 67284U 25313AN 26202.52469453 .00004187 00000-0 17997-3 0 9997 2 67284 97.3906 276.6791 0009326 232.5798 127.4591 15.23176482 31188 SAKHACUBE-CHOLBON 1 67290U 25313AU 26202.47328578 .00007583 00000-0 30253-3 0 9993 2 67290 97.3915 277.0903 0008171 225.4474 134.6097 15.25430441 31208 QMR-KWT-2 1 67291U 25313AV 26202.03394480 .00010048 00000-0 38071-3 0 9997 2 67291 97.3911 276.9085 0007938 223.0851 136.9767 15.27067305 31157 KNACKSAT-2 1 67683U 98067XZ 26202.01445164 .00044153 00000-0 48284-3 0 9993 2 67683 51.6271 123.9445 0007841 347.8251 12.2553 15.62823140 25560 TEN-KOH2 1 88780U 25241B 26071.31019830 .00010367 00000+0 45580-3 0 9997 2 88780 51.6301 60.3795 0004576 163.6979 196.4146 15.22421637 141